TimeCDT,TemperatureF,Dew PointF,Humidity,Sea Level PressureIn,VisibilityMPH,Wind Direction,Wind SpeedMPH,Gust SpeedMPH,PrecipitationIn,Events,Conditions,WindDirDegrees,DateUTC
12:14 AM,77.0,73.4,89,29.95,10.0,SE,12.7,20.7,N/A,,Clear,140,2013-08-24 05:14:00
12:34 AM,77.0,73.4,89,29.95,10.0,SE,10.4,-,N/A,,Clear,140,2013-08-24 05:34:00
12:54 AM,75.2,73.4,94,29.95,10.0,SE,15.0,-,N/A,,Clear,140,2013-08-24 05:54:00
1:15 AM,75.2,73.4,94,29.95,10.0,SE,13.8,17.3,N/A,,Clear,130,2013-08-24 06:15:00
1:34 AM,75.2,71.6,89,29.95,10.0,SE,12.7,18.4,N/A,,Clear,140,2013-08-24 06:34:00
1:54 AM,75.2,73.4,94,29.95,10.0,SE,12.7,18.4,N/A,,Clear,140,2013-08-24 06:54:00
2:14 AM,75.2,71.6,89,29.94,10.0,SE,13.8,18.4,N/A,,Clear,140,2013-08-24 07:14:00
2:35 AM,75.2,71.6,89,29.95,7.0,SE,12.7,-,N/A,,Clear,130,2013-08-24 07:35:00
2:54 AM,73.4,71.6,94,29.94,7.0,SE,12.7,-,N/A,,Clear,130,2013-08-24 07:54:00
3:14 AM,73.4,71.6,94,29.94,7.0,SE,11.5,-,N/A,,Clear,130,2013-08-24 08:14:00
3:34 AM,73.4,71.6,94,29.94,7.0,SE,11.5,-,N/A,,Clear,130,2013-08-24 08:34:00
3:55 AM,73.4,71.6,94,29.93,7.0,SE,10.4,-,N/A,,Clear,130,2013-08-24 08:55:00
4:14 AM,73.4,71.6,94,29.93,7.0,SE,12.7,17.3,N/A,,Clear,130,2013-08-24 09:14:00
4:35 AM,73.4,71.6,94,29.93,7.0,SE,11.5,-,N/A,,Clear,130,2013-08-24 09:35:00
4:54 AM,73.4,71.6,94,29.93,7.0,SE,12.7,-,N/A,,Clear,130,2013-08-24 09:54:00
5:14 AM,73.4,71.6,94,29.93,7.0,SE,13.8,-,N/A,,Clear,130,2013-08-24 10:14:00
5:34 AM,73.4,71.6,94,29.92,7.0,SE,12.7,-,N/A,,Clear,130,2013-08-24 10:34:00
5:55 AM,73.4,71.6,94,29.92,7.0,SE,12.7,-,N/A,,Clear,130,2013-08-24 10:55:00
6:15 AM,73.4,71.6,94,29.92,7.0,SE,12.7,-,N/A,,Clear,140,2013-08-24 11:15:00
6:34 AM,73.4,71.6,94,29.92,7.0,SE,11.5,-,N/A,,Clear,140,2013-08-24 11:34:00
6:54 AM,73.4,71.6,94,29.92,7.0,SE,10.4,-,N/A,,Clear,130,2013-08-24 11:54:00
7:14 AM,73.4,71.6,94,29.92,7.0,SE,12.7,-,N/A,,Clear,140,2013-08-24 12:14:00
7:34 AM,75.2,71.6,89,29.91,7.0,SE,12.7,-,N/A,,Clear,130,2013-08-24 12:34:00
7:54 AM,75.2,71.6,89,29.91,7.0,SE,13.8,21.9,N/A,,Clear,140,2013-08-24 12:54:00
8:14 AM,75.2,71.6,89,29.91,10.0,SE,12.7,19.6,N/A,Thunderstorm,Clear,140,2013-08-24 13:14:00
8:34 AM,78.8,73.4,83,29.91,10.0,SE,11.5,19.6,N/A,,Clear,140,2013-08-24 13:34:00
8:54 AM,78.8,71.6,78,29.91,10.0,SE,13.8,19.6,N/A,,Clear,140,2013-08-24 13:54:00
9:14 AM,78.8,71.6,78,29.90,10.0,SE,15.0,21.9,N/A,,Clear,140,2013-08-24 14:14:00
9:34 AM,80.6,71.6,74,29.90,10.0,SSE,13.8,24.2,N/A,,Clear,150,2013-08-24 14:34:00
9:54 AM,80.6,71.6,74,29.88,10.0,SSE,15.0,23.0,N/A,,Clear,150,2013-08-24 14:54:00
10:15 AM,82.4,71.6,70,29.88,10.0,SSE,13.8,23.0,N/A,,Clear,150,2013-08-24 15:15:00
10:34 AM,82.4,71.6,70,29.87,10.0,SSE,19.6,-,N/A,,Clear,160,2013-08-24 15:34:00
10:54 AM,84.2,73.4,70,29.86,10.0,South,12.7,23.0,N/A,,Clear,170,2013-08-24 15:54:00
11:15 AM,86.0,73.4,66,29.86,10.0,SSE,17.3,23.0,N/A,,Clear,160,2013-08-24 16:15:00
11:35 AM,87.8,73.4,62,29.85,10.0,South,17.3,26.5,N/A,,Clear,170,2013-08-24 16:35:00
11:54 AM,87.8,73.4,62,29.86,10.0,South,16.1,27.6,N/A,,Clear,180,2013-08-24 16:54:00
12:14 PM,89.6,73.4,59,29.85,10.0,South,19.6,24.2,N/A,,Clear,170,2013-08-24 17:14:00
12:34 PM,89.6,73.4,59,29.85,10.0,South,15.0,24.2,N/A,,Clear,170,2013-08-24 17:34:00
12:55 PM,89.6,73.4,59,29.84,10.0,South,13.8,23.0,N/A,,Clear,170,2013-08-24 17:55:00
1:14 PM,91.4,73.4,55,29.83,10.0,South,17.3,24.2,N/A,,Clear,180,2013-08-24 18:14:00
1:34 PM,91.4,73.4,55,29.83,10.0,South,18.4,23.0,N/A,,Clear,170,2013-08-24 18:34:00
1:54 PM,89.6,71.6,55,29.82,10.0,SSE,12.7,21.9,N/A,,Clear,160,2013-08-24 18:54:00
2:14 PM,91.4,73.4,55,29.82,10.0,SSE,16.1,24.2,N/A,,Clear,160,2013-08-24 19:14:00
2:34 PM,91.4,73.4,55,29.82,10.0,SSE,12.7,21.9,N/A,,Clear,150,2013-08-24 19:34:00
2:54 PM,91.4,73.4,55,29.82,10.0,SSE,15.0,24.2,N/A,,Clear,150,2013-08-24 19:54:00
3:14 PM,91.4,75.2,59,29.81,10.0,SE,13.8,17.3,N/A,,Clear,140,2013-08-24 20:14:00
3:34 PM,93.2,73.4,52,29.81,10.0,SSE,10.4,18.4,N/A,,Clear,160,2013-08-24 20:34:00
3:54 PM,93.2,73.4,52,29.80,10.0,South,12.7,20.7,N/A,,Clear,170,2013-08-24 20:54:00
4:14 PM,93.2,73.4,52,29.80,10.0,South,11.5,20.7,N/A,,Clear,190,2013-08-24 21:14:00
4:35 PM,93.2,75.2,56,29.80,10.0,South,12.7,17.3,N/A,,Clear,170,2013-08-24 21:35:00
4:54 PM,93.2,73.4,52,29.80,10.0,South,11.5,24.2,N/A,,Clear,190,2013-08-24 21:54:00
5:14 PM,93.2,73.4,52,29.80,10.0,South,11.5,20.7,N/A,,Clear,190,2013-08-24 22:14:00
5:35 PM,93.2,75.2,56,29.80,10.0,South,9.2,19.6,N/A,,Clear,190,2013-08-24 22:35:00
5:54 PM,93.2,75.2,56,29.80,10.0,South,9.2,16.1,N/A,,Clear,170,2013-08-24 22:54:00
6:14 PM,93.2,75.2,56,29.79,10.0,South,12.7,18.4,N/A,,Clear,180,2013-08-24 23:14:00
6:34 PM,91.4,75.2,59,29.79,10.0,South,12.7,19.6,N/A,,Clear,180,2013-08-24 23:34:00
6:54 PM,91.4,75.2,59,29.79,10.0,South,11.5,18.4,N/A,,Clear,170,2013-08-24 23:54:00
7:14 PM,91.4,75.2,59,29.79,10.0,South,9.2,-,N/A,,Clear,170,2013-08-25 00:14:00
7:34 PM,89.6,75.2,62,29.80,10.0,SSE,8.1,-,N/A,,Clear,160,2013-08-25 00:34:00
7:54 PM,89.6,75.2,62,29.80,10.0,South,8.1,16.1,N/A,,Clear,170,2013-08-25 00:54:00
8:15 PM,87.8,75.2,66,29.80,10.0,SSE,8.1,-,N/A,,Clear,150,2013-08-25 01:15:00
8:34 PM,84.2,77.0,79,29.81,10.0,SE,6.9,-,N/A,,Clear,140,2013-08-25 01:34:00
8:54 PM,84.2,75.2,74,29.82,10.0,SE,9.2,-,N/A,,Clear,140,2013-08-25 01:54:00
9:14 PM,82.4,77.0,84,29.82,10.0,SE,9.2,-,N/A,,Clear,140,2013-08-25 02:14:00
9:35 PM,82.4,75.2,79,29.82,10.0,SE,9.2,-,N/A,,Clear,140,2013-08-25 02:35:00
9:55 PM,82.4,75.2,79,29.83,10.0,SE,9.2,-,N/A,,Clear,140,2013-08-25 02:55:00
10:15 PM,84.2,77.0,79,29.83,10.0,SSE,10.4,16.1,N/A,,Clear,160,2013-08-25 03:15:00
10:34 PM,84.2,77.0,79,29.83,10.0,SSE,9.2,-,N/A,,Clear,160,2013-08-25 03:34:00
10:55 PM,84.2,77.0,79,29.83,10.0,South,12.7,18.4,N/A,,Clear,170,2013-08-25 03:55:00
11:14 PM,84.2,77.0,79,29.84,10.0,SSE,10.4,18.4,N/A,,Clear,160,2013-08-25 04:14:00
11:34 PM,82.4,77.0,84,29.84,10.0,South,8.1,-,N/A,,Clear,170,2013-08-25 04:34:00
11:55 PM,82.4,77.0,84,29.85,10.0,South,10.4,-,N/A,,Clear,170,2013-08-25 04:55:00